Location: Владивосток
(43.1151°N, 131.8856°E)
Time: 01:23:34
(UTC+10:00)

FO-29 - Pass Details

Date: 04 May 2024
Orbit: 801 x 1320 km, 98.6° (Epoch: 19 May)

Event Time Altitude Azimuth Distance (km) Brightness Sun altitude
Rises 01:08:28 0° 29° (NNE) 4,320 13.7 -30.9°
Reaches altitude 10° 01:12:51 10° 52° (NE) 3,355 12.7 -30.9°
Maximum altitude 01:16:59 15° 84° (E) 2,968 12.1 -30.9°
Enters shadow 01:19:47 12° 107° (ESE) 3,122 12.0 -30.9°
